Regional Weather Roundup
Issued by NWS

Home | Current Version | Previous Version | Graphics & Text | Print | Product List | Glossary On
Versions: 1 2 3 4 5 6 7 8 9 10 11 12 13 14 15 16 17 18 19 20 21 22 23 24 25 26 27 28 29 30 31 32 33 34 35 36 37 38 39 40 41 42 43 44 45 46 47 48 49
000
ASUS45 KBOU 230107
RWRCO

WEATHER ROUNDUP FOR COLORADO
NATIONAL WEATHER SERVICE DENVER/BOULDER CO
700 PM MDT SAT APR 22 2017

NOTE: "FAIR" INDICATES FEW OR NO CLOUDS BELOW 12000 FEET WITH NO
SIGNIFICANT WEATHER AND/OR OBSTRUCTIONS TO VISIBILITY.

COZ001>005-013-030-031-230200-
...NORTHWEST COLORADO...

CITY           SKY/WX    TMP DP  RH WIND       PRES   REMARKS
CRAIG          FAIR      56  18  22 SW7       30.12F
HAYDEN         FAIR      55  18  22 S7        30.14S
MEEKER         FAIR      58  20  22 CALM      30.12F
MOUNT WERNER   NOT AVBL
STEAMBOAT SPGS FAIR      53  20  27 SE6       30.14F
WALDEN           N/A     48  19  32 CALM      30.21S
$$

COZ006>008-011-230200-
...WEST CENTRAL VALLEYS...

CITY           SKY/WX    TMP DP  RH WIND       PRES   REMARKS
GRAND JUNCTION FAIR      64  17  16 SW6       30.07F
MONTROSE       FAIR      60  12  15 NW5       30.13S
EAGLE          CLEAR     57  18  21 W7        30.16F
RIFLE          FAIR      62  16  16 N3        30.10F
DELTA          FAIR      65  14  13 CALM      30.10F
NUCLA          FAIR      63  14  15 NW7       30.14F
$$

COZ017>023-064>068-230200-
...SOUTHWEST COLORADO...

CITY           SKY/WX    TMP DP  RH WIND       PRES   REMARKS
DURANGO        FAIR      59  15  18 SW8       30.14R
CORTEZ         FAIR      64  16  15 W10       30.11S
PAGOSA SPRINGS FAIR      59  10  14 S10       30.18R
TELLURIDE      FAIR      53  15  22 W13       30.24R
WOLF CREEK PAS FAIR      34  16  47 S15G23    30.38S WCI  24
$$

COZ009-010-012-014-032>034-037-058>063-230200-
...CENTRAL COLORADO...

CITY           SKY/WX    TMP DP  RH WIND       PRES   REMARKS
ASPEN          FAIR      50  16  25 VRB3      30.16S
BUENA VISTA    FAIR      48  23  37 S17       30.22R
COPPER MTN     FAIR      34  10  37 S9        30.32F WCI  26
BERTHOUD PASS  FAIR      23  12  63 S14G20    30.33F WCI  11
COTTONWOOD PAS FAIR      43  14  31 SE3       30.27S
GUNNISON       FAIR      55  18  23 SW7       30.16S
KREMMLING      FAIR      59  14  17 CALM      30.18S
LEADVILLE      FAIR      42   9  25 S7        30.23S
MONARCH PASS   FAIR      30  19  64 NE12      30.43S WCI  21
SALIDA         FAIR      49  26  40 SE16G26   30.29S
SUNLIGHT       FAIR      34  19  55 CALM      30.32F
WILKERSON PASS FAIR      30  19  64 SE6       30.35F WCI  24
$$

COZ069>075-230200-
...SAN LUIS VALLEY/SANGRE DE CRISTO MOUNTAINS...

CITY           SKY/WX    TMP DP  RH WIND       PRES   REMARKS
ALAMOSA        FAIR      51  26  37 E14       30.17R
LA VETA PASS   FAIR      28  27  93 NE8       30.42S WCI  20
SAGUACHE       FAIR      52  19  28 E7        30.19S
$$

COZ035-036-038>040-230200-
...NORTHERN COLORADO FRONT RANGE...

CITY           SKY/WX    TMP DP  RH WIND       PRES   REMARKS
DENVER INTL AP FAIR      54  27  35 SE10      30.20F
DMNS CITY PARK   N/A     55  24  30 E10       30.19F
AURORA         PTCLDY    53  25  33 SE6       30.21F
FRONT RANGE AP PTCLDY    55  27  33 SE8       30.22S
ERIE MUNI ARPT FAIR      56  24  28 E7        30.19F
BOULDER MUN AP FAIR      55  28  35 S3        30.18F
CENTENNIAL     FAIR      53  25  33 S6        30.21F
BROOMFIELD     PTCLDY    55  27  33 E5        30.20F
FORT COLLINS   FAIR      55  30  38 SE8       30.20F
LONGMONT       FAIR      58  29  32 SE5       30.21S HAZE
$$

COZ041-046-047-076>085-087-088-230200-
...PIKES PEAK/PALMER DIVIDE AND SOUTHERN FOOTHILLS...

CITY           SKY/WX    TMP DP  RH WIND       PRES   REMARKS
COLO. SPRINGS  FAIR      49  32  52 S9        30.26S
A. F. ACADEMY  FAIR      46  32  56 S10       30.24S
SCHRIEVER AFB  FAIR      47  31  53 S7        30.26S
ELLICOTT       FAIR     N/A N/A N/A S9        30.25S
FALCON         FAIR      45  31  59 S7        30.28S
FORT CARSON    FAIR      48  34  57 SE10      30.25S
LIMON          FAIR      50  29  44 SE8       30.24S
MONUMENT HILL  FAIR      43  30  61 S7        30.26S
TRINIDAD       FAIR      50  28  42 E5        30.27S
$$

COZ042>045-048>051-090-091-230200-
...NORTHEAST COLORADO...

CITY           SKY/WX    TMP DP  RH WIND       PRES   REMARKS
GREELEY ARPT   FAIR      57  32  38 SE10      30.20F
AKRON          FAIR      53  29  39 S6        30.22F
BURLINGTON     NOT AVBL
WRAY           NOT AVBL
STERLING       FAIR      55  32  41 S3        30.21S
HOLYOKE        FAIR      59  30  33 SE5       30.23S
FORT MORGAN    FAIR      54  31  41 SE6       30.22F
$$

COZ086-089-092>099-230200-
...SOUTHEAST COLORADO...

CITY           SKY/WX    TMP DP  RH WIND       PRES   REMARKS
PUEBLO         FAIR      54  33  45 S6        30.23F
LA JUNTA       FAIR      56  32  40 VRB3      30.24S
LAMAR          FAIR      56  32  40 CALM      30.23S
SPRINGFIELD      N/A     50  31  48 NE6       30.26R
$$



USA.gov is the U.S. government's official web portal to all federal, state and local government web resources and services.